Time,TemperatureF,DewpointF,PressureIn,WindDirection,WindDirectionDegrees,WindSpeedMPH,WindSpeedGustMPH,Humidity,HourlyPrecipIn,Conditions,Clouds,dailyrainin,SoftwareType,DateUTC
2013-09-05 00:42:00,62.0,50.0,-100.00,North,-999,0.0,0.0,63,-99.99,,,-99.99,,2013-09-05 07:42:00,
2013-09-05 00:52:00,61.0,50.0,-100.00,North,0,1.0,2.0,65,-99.99,,,-99.99,,2013-09-05 07:52:00,
2013-09-05 01:12:00,62.0,50.0,-100.00,West,270,3.0,6.0,65,-99.99,,,-99.99,,2013-09-05 08:12:00,
2013-09-05 01:21:00,63.0,50.0,-100.00,NE,45,0.0,1.0,64,-99.99,,,-99.99,,2013-09-05 08:21:00,
2013-09-05 01:42:00,63.0,51.0,-100.00,SW,225,2.0,4.0,64,-99.99,,,-99.99,,2013-09-05 08:42:00,
2013-09-05 01:52:00,63.0,51.0,-100.00,North,0,3.0,3.0,64,-99.99,,,-99.99,,2013-09-05 08:52:00,
2013-09-05 02:11:00,62.0,51.0,-100.00,East,90,1.0,1.0,66,-99.99,,,-99.99,,2013-09-05 09:11:00,
2013-09-05 02:22:00,62.0,51.0,-100.00,SE,135,1.0,2.0,69,-99.99,,,-99.99,,2013-09-05 09:22:00,
2013-09-05 02:43:00,61.0,52.0,-100.00,SW,225,3.0,3.0,72,-99.99,,,-99.99,,2013-09-05 09:43:00,
2013-09-05 02:54:00,60.0,54.0,-100.00,SE,135,1.0,1.0,81,-99.99,,,-99.99,,2013-09-05 09:54:00,
2013-09-05 03:12:00,59.0,55.0,-100.00,North,-999,0.0,0.0,85,-99.99,,,-99.99,,2013-09-05 10:12:00,
2013-09-05 03:23:00,59.0,55.0,-100.00,East,90,0.0,1.0,87,-99.99,,,-99.99,,2013-09-05 10:23:00,
2013-09-05 03:43:00,59.0,55.0,-100.00,North,-999,0.0,0.0,88,-99.99,,,-99.99,,2013-09-05 10:43:00,
2013-09-05 03:53:00,59.0,56.0,-100.00,North,-999,0.0,0.0,89,-99.99,,,-99.99,,2013-09-05 10:53:00,
2013-09-05 04:21:00,59.0,56.0,-100.00,North,-999,0.0,0.0,89,-99.99,,,-99.99,,2013-09-05 11:21:00,
2013-09-05 04:42:00,59.0,56.0,-100.00,South,180,1.0,2.0,89,-99.99,,,-99.99,,2013-09-05 11:42:00,
2013-09-05 04:52:00,59.0,56.0,-100.00,NE,45,2.0,3.0,89,-99.99,,,-99.99,,2013-09-05 11:52:00,
2013-09-05 05:12:00,59.0,56.0,-100.00,South,180,2.0,4.0,89,-99.99,,,-99.99,,2013-09-05 12:12:00,
2013-09-05 05:21:00,59.0,56.0,-100.00,South,180,2.0,3.0,89,-99.99,,,-99.99,,2013-09-05 12:21:00,
2013-09-05 05:42:00,59.0,55.0,-100.00,SW,225,1.0,2.0,89,-99.99,,,-99.99,,2013-09-05 12:42:00,
2013-09-05 05:52:00,59.0,55.0,-100.00,SW,225,1.0,2.0,89,-99.99,,,-99.99,,2013-09-05 12:52:00,
2013-09-05 06:12:00,59.0,55.0,-100.00,South,180,0.0,1.0,89,-99.99,,,-99.99,,2013-09-05 13:12:00,
2013-09-05 06:21:00,59.0,55.0,-100.00,North,-999,0.0,0.0,89,-99.99,,,-99.99,,2013-09-05 13:21:00,
2013-09-05 06:42:00,59.0,55.0,-100.00,South,180,0.0,1.0,89,-99.99,,,-99.99,,2013-09-05 13:42:00,
2013-09-05 06:53:00,59.0,55.0,-100.00,South,180,2.0,3.0,89,-99.99,,,-99.99,,2013-09-05 13:53:00,
2013-09-05 07:12:00,59.0,55.0,-100.00,South,180,1.0,3.0,89,-99.99,,,-99.99,,2013-09-05 14:12:00,
2013-09-05 07:22:00,58.0,55.0,-100.00,South,180,1.0,3.0,89,-99.99,,,-99.99,,2013-09-05 14:22:00,
2013-09-05 07:42:00,59.0,55.0,-100.00,SW,225,2.0,3.0,89,-99.99,,,-99.99,,2013-09-05 14:42:00,
2013-09-05 07:52:00,59.0,55.0,-100.00,SW,225,0.0,1.0,89,-99.99,,,-99.99,,2013-09-05 14:52:00,
2013-09-05 08:11:00,59.0,56.0,-100.00,SW,225,3.0,4.0,89,-99.99,,,-99.99,,2013-09-05 15:11:00,
2013-09-05 08:22:00,59.0,56.0,-100.00,South,180,1.0,3.0,89,-99.99,,,-99.99,,2013-09-05 15:22:00,
2013-09-05 08:44:00,59.0,56.0,-100.00,South,180,0.0,1.0,89,-99.99,,,-99.99,,2013-09-05 15:44:00,
2013-09-05 08:54:00,59.0,56.0,-100.00,South,180,0.0,1.0,89,-99.99,,,-99.99,,2013-09-05 15:54:00,
2013-09-05 09:13:00,59.0,56.0,-100.00,SE,135,1.0,1.0,89,-99.99,,,-99.99,,2013-09-05 16:13:00,
2013-09-05 09:24:00,60.0,56.0,-100.00,South,180,3.0,3.0,89,-99.99,,,-99.99,,2013-09-05 16:24:00,
2013-09-05 09:43:00,60.0,57.0,-100.00,SW,225,3.0,5.0,89,-99.99,,,-99.99,,2013-09-05 16:43:00,
2013-09-05 09:54:00,61.0,56.0,-100.00,South,180,3.0,4.0,85,-99.99,,,-99.99,,2013-09-05 16:54:00,
2013-09-05 10:12:00,62.0,56.0,-100.00,SW,225,4.0,6.0,81,-99.99,,,-99.99,,2013-09-05 17:12:00,
2013-09-05 10:23:00,63.0,55.0,-100.00,South,180,2.0,3.0,76,-99.99,,,-99.99,,2013-09-05 17:23:00,
2013-09-05 10:43:00,64.0,55.0,-100.00,South,180,1.0,2.0,72,-99.99,,,-99.99,,2013-09-05 17:43:00,
2013-09-05 10:52:00,66.0,53.0,-100.00,SE,135,1.0,3.0,64,-99.99,,,-99.99,,2013-09-05 17:52:00,
2013-09-05 11:12:00,68.0,53.0,-100.00,East,90,1.0,1.0,59,-99.99,,,-99.99,,2013-09-05 18:12:00,
2013-09-05 11:21:00,67.0,53.0,-100.00,South,180,2.0,3.0,62,-99.99,,,-99.99,,2013-09-05 18:21:00,
2013-09-05 11:42:00,67.0,53.0,-100.00,South,180,3.0,4.0,62,-99.99,,,-99.99,,2013-09-05 18:42:00,
2013-09-05 11:52:00,67.0,54.0,-100.00,South,180,1.0,2.0,62,-99.99,,,-99.99,,2013-09-05 18:52:00,
2013-09-05 12:11:00,68.0,54.0,-100.00,SE,135,1.0,2.0,61,-99.99,,,-99.99,,2013-09-05 19:11:00,
2013-09-05 12:21:00,70.0,53.0,-100.00,North,0,3.0,4.0,56,-99.99,,,-99.99,,2013-09-05 19:21:00,
2013-09-05 12:42:00,70.0,53.0,-100.00,West,270,1.0,3.0,55,-99.99,,,-99.99,,2013-09-05 19:42:00,
2013-09-05 12:52:00,69.0,53.0,-100.00,South,180,0.0,2.0,56,-99.99,,,-99.99,,2013-09-05 19:52:00,
2013-09-05 13:11:00,69.0,53.0,-100.00,South,180,0.0,1.0,56,-99.99,,,-99.99,,2013-09-05 20:11:00,
2013-09-05 13:22:00,68.0,54.0,-100.00,SW,225,3.0,4.0,59,-99.99,,,-99.99,,2013-09-05 20:22:00,
2013-09-05 13:42:00,68.0,53.0,-100.00,West,270,3.0,4.0,58,-99.99,,,-99.99,,2013-09-05 20:42:00,
2013-09-05 13:52:00,68.0,54.0,-100.00,North,0,2.0,4.0,61,-99.99,,,-99.99,,2013-09-05 20:52:00,
2013-09-05 14:02:00,68.0,54.0,-100.00,North,0,2.0,4.0,61,-99.99,,,-99.99,,2013-09-05 21:02:00,
2013-09-05 14:12:00,68.0,54.0,-100.00,North,0,2.0,4.0,61,-99.99,,,-99.99,,2013-09-05 21:12:00,
2013-09-05 14:21:00,65.0,57.0,-100.00,West,270,4.0,5.0,75,-99.99,,,-99.99,,2013-09-05 21:21:00,
2013-09-05 14:44:00,64.0,58.0,-100.00,West,270,4.0,8.0,80,-99.99,,,-99.99,,2013-09-05 21:44:00,
2013-09-05 14:54:00,64.0,58.0,-100.00,SW,225,4.0,5.0,82,-99.99,,,-99.99,,2013-09-05 21:54:00,
2013-09-05 15:13:00,64.0,59.0,-100.00,SW,225,3.0,4.0,82,-99.99,,,-99.99,,2013-09-05 22:13:00,
2013-09-05 15:43:00,64.0,58.0,-100.00,West,270,4.0,6.0,82,-99.99,,,-99.99,,2013-09-05 22:43:00,
2013-09-05 15:53:00,63.0,59.0,-100.00,West,270,6.0,9.0,85,-99.99,,,-99.99,,2013-09-05 22:53:00,
2013-09-05 16:12:00,63.0,59.0,-100.00,SW,225,6.0,7.0,87,-99.99,,,-99.99,,2013-09-05 23:12:00,
2013-09-05 16:22:00,63.0,59.0,-100.00,SW,225,4.0,7.0,87,-99.99,,,-99.99,,2013-09-05 23:22:00,
2013-09-05 16:42:00,62.0,59.0,-100.00,SW,225,4.0,6.0,88,-99.99,,,-99.99,,2013-09-05 23:42:00,
2013-09-05 16:53:00,61.0,58.0,-100.00,South,180,5.0,6.0,89,-99.99,,,-99.99,,2013-09-05 23:53:00,
2013-09-05 17:12:00,60.0,57.0,-100.00,South,180,9.0,11.0,89,-99.99,,,-99.99,,2013-09-06 00:12:00,
2013-09-05 17:22:00,60.0,57.0,-100.00,South,180,9.0,12.0,90,-99.99,,,-99.99,,2013-09-06 00:22:00,
2013-09-05 17:42:00,59.0,56.0,-100.00,SW,225,6.0,8.0,90,-99.99,,,-99.99,,2013-09-06 00:42:00,
2013-09-05 17:52:00,59.0,57.0,-100.00,South,180,7.0,9.0,90,-99.99,,,-99.99,,2013-09-06 00:52:00,
2013-09-05 18:11:00,59.0,56.0,-100.00,South,180,6.0,8.0,90,-99.99,,,-99.99,,2013-09-06 01:11:00,
2013-09-05 18:22:00,59.0,56.0,-100.00,South,180,9.0,14.0,89,-99.99,,,-99.99,,2013-09-06 01:22:00,
2013-09-05 18:42:00,59.0,55.0,-100.00,SW,225,10.0,12.0,89,-99.99,,,-99.99,,2013-09-06 01:42:00,
2013-09-05 18:52:00,59.0,56.0,-100.00,SW,225,9.0,11.0,89,-99.99,,,-99.99,,2013-09-06 01:52:00,
2013-09-05 19:11:00,59.0,56.0,-100.00,SW,225,8.0,9.0,89,-99.99,,,-99.99,,2013-09-06 02:11:00,
2013-09-05 19:22:00,59.0,56.0,-100.00,SW,225,8.0,10.0,89,-99.99,,,-99.99,,2013-09-06 02:22:00,
2013-09-05 19:42:00,59.0,56.0,-100.00,SW,225,7.0,9.0,89,-99.99,,,-99.99,,2013-09-06 02:42:00,
2013-09-05 19:52:00,59.0,56.0,-100.00,SW,225,6.0,8.0,89,-99.99,,,-99.99,,2013-09-06 02:52:00,
2013-09-05 20:11:00,59.0,55.0,-100.00,South,180,4.0,6.0,89,-99.99,,,-99.99,,2013-09-06 03:11:00,
2013-09-05 20:22:00,58.0,55.0,-100.00,South,180,4.0,5.0,89,-99.99,,,-99.99,,2013-09-06 03:22:00,
2013-09-05 20:44:00,58.0,55.0,-100.00,South,180,6.0,8.0,89,-99.99,,,-99.99,,2013-09-06 03:44:00,
2013-09-05 20:55:00,58.0,55.0,-100.00,South,180,6.0,8.0,89,-99.99,,,-99.99,,2013-09-06 03:55:00,
2013-09-05 21:13:00,58.0,54.0,-100.00,South,180,5.0,7.0,89,-99.99,,,-99.99,,2013-09-06 04:13:00,
2013-09-05 21:23:00,58.0,55.0,-100.00,South,180,3.0,4.0,89,-99.99,,,-99.99,,2013-09-06 04:23:00,
2013-09-05 21:44:00,58.0,54.0,-100.00,South,180,3.0,6.0,89,-99.99,,,-99.99,,2013-09-06 04:44:00,
2013-09-05 21:54:00,58.0,55.0,-100.00,SW,225,6.0,6.0,89,-99.99,,,-99.99,,2013-09-06 04:54:00,
2013-09-05 22:12:00,58.0,55.0,-100.00,South,180,5.0,7.0,89,-99.99,,,-99.99,,2013-09-06 05:12:00,
2013-09-05 22:23:00,58.0,55.0,-100.00,West,270,3.0,4.0,89,-99.99,,,-99.99,,2013-09-06 05:23:00,
2013-09-05 22:42:00,58.0,55.0,-100.00,South,180,2.0,3.0,89,-99.99,,,-99.99,,2013-09-06 05:42:00,
2013-09-05 22:52:00,58.0,55.0,-100.00,SW,225,4.0,5.0,89,-99.99,,,-99.99,,2013-09-06 05:52:00,
2013-09-05 23:11:00,58.0,55.0,-100.00,South,180,6.0,9.0,89,-99.99,,,-99.99,,2013-09-06 06:11:00,
2013-09-05 23:21:00,58.0,55.0,-100.00,South,180,5.0,9.0,89,-99.99,,,-99.99,,2013-09-06 06:21:00,
2013-09-05 23:42:00,58.0,55.0,-100.00,South,180,6.0,7.0,89,-99.99,,,-99.99,,2013-09-06 06:42:00,
2013-09-05 23:53:00,58.0,55.0,-100.00,South,180,6.0,8.0,89,-99.99,,,-99.99,,2013-09-06 06:53:00,